Location: Clarion
(42.7316°N, 93.7330°W)
Time: 09:30:40
(UTC+00:00)

COSMOS 2455 - Pass Details

Date: 22 April 2026
Orbit: 901 x 907 km, 67.1° (Epoch: 16 May)

Event Time Altitude Azimuth Distance (km) Brightness Sun altitude
Rises 04:21:57 0° 330° (NNW) 3,542 7.2 -29.4°
Reaches altitude 10° 04:24:28 10° 332° (NNW) 2,596 6.2 -29.7°
Enters shadow 04:30:05 75° 11° (N) 942 2.9 -30.2°
